Year,Month,Day,Hour,Minute,Value (Times are PST for temperature in C)
2021,04,17,00,00,10.90
2021,04,17,00,01,11.00
2021,04,17,00,02,11.10
2021,04,17,00,03,11.10
2021,04,17,00,04,11.20
2021,04,17,00,05,11.20
2021,04,17,00,06,11.20
2021,04,17,00,07,11.20
2021,04,17,00,08,11.30
2021,04,17,00,09,11.30
2021,04,17,00,10,11.40
2021,04,17,00,11,11.40
2021,04,17,00,12,11.40
2021,04,17,00,13,11.50
2021,04,17,00,14,11.40
2021,04,17,00,15,11.40
2021,04,17,00,16,11.40
2021,04,17,00,17,11.40
2021,04,17,00,18,11.40
2021,04,17,00,19,11.40
2021,04,17,00,20,11.30
2021,04,17,00,21,11.30
2021,04,17,00,22,11.30
2021,04,17,00,23,11.30
2021,04,17,00,24,11.30
2021,04,17,00,25,11.40
2021,04,17,00,26,11.40
2021,04,17,00,27,11.40
2021,04,17,00,28,11.40
2021,04,17,00,29,11.50
2021,04,17,00,30,11.50
2021,04,17,00,31,11.50
2021,04,17,00,32,11.50
2021,04,17,00,33,11.60
2021,04,17,00,34,11.60
2021,04,17,00,35,11.60
2021,04,17,00,36,11.60
2021,04,17,00,37,11.60
2021,04,17,00,38,11.60
2021,04,17,00,39,11.60
2021,04,17,00,40,11.60
2021,04,17,00,41,11.60
2021,04,17,00,42,11.50
2021,04,17,00,43,11.50
2021,04,17,00,44,11.50
2021,04,17,00,45,11.40
2021,04,17,00,46,11.40
2021,04,17,00,47,11.30
2021,04,17,00,48,11.30
2021,04,17,00,49,11.30
2021,04,17,00,50,11.20
2021,04,17,00,51,11.20
2021,04,17,00,52,11.20
2021,04,17,00,53,11.20
2021,04,17,00,54,11.10
2021,04,17,00,55,11.10
2021,04,17,00,56,11.10
2021,04,17,00,57,11.10
2021,04,17,00,58,11.10
2021,04,17,00,59,11.10
2021,04,17,01,00,11.10
2021,04,17,01,01,11.10
2021,04,17,01,02,11.10
2021,04,17,01,03,11.10
2021,04,17,01,04,11.20
2021,04,17,01,05,11.20
2021,04,17,01,06,11.20
2021,04,17,01,07,11.20
2021,04,17,01,08,11.20
2021,04,17,01,09,11.10
2021,04,17,01,10,11.10
2021,04,17,01,11,11.00
2021,04,17,01,12,11.00
2021,04,17,01,13,11.00
2021,04,17,01,14,10.90
2021,04,17,01,15,10.90
2021,04,17,01,16,10.90
2021,04,17,01,17,10.90
2021,04,17,01,18,11.00
2021,04,17,01,19,11.10
2021,04,17,01,20,11.20
2021,04,17,01,21,11.30
2021,04,17,01,22,11.40
2021,04,17,01,23,11.40
2021,04,17,01,24,11.40
2021,04,17,01,25,11.40
2021,04,17,01,26,11.40
2021,04,17,01,27,11.40
2021,04,17,01,28,11.40
2021,04,17,01,29,11.50
2021,04,17,01,30,11.50
2021,04,17,01,31,11.60
2021,04,17,01,32,11.60
2021,04,17,01,33,11.50
2021,04,17,01,34,11.60
2021,04,17,01,35,11.60
2021,04,17,01,36,11.70
2021,04,17,01,37,11.70
2021,04,17,01,38,11.70
2021,04,17,01,39,11.70
2021,04,17,01,40,11.70
2021,04,17,01,41,11.70
2021,04,17,01,42,11.70
2021,04,17,01,43,11.60
2021,04,17,01,44,11.60
2021,04,17,01,45,11.60
2021,04,17,01,46,11.60
2021,04,17,01,47,11.50
2021,04,17,01,48,11.50
2021,04,17,01,49,11.50
2021,04,17,01,50,11.40
2021,04,17,01,51,11.40
2021,04,17,01,52,11.30
2021,04,17,01,53,11.30
2021,04,17,01,54,11.30
2021,04,17,01,55,11.20
2021,04,17,01,56,11.20
2021,04,17,01,57,11.20
2021,04,17,01,58,11.20
2021,04,17,01,59,11.20
2021,04,17,02,00,11.10
2021,04,17,02,01,11.10
2021,04,17,02,02,11.10
2021,04,17,02,03,11.10
2021,04,17,02,04,11.00
2021,04,17,02,05,11.00
2021,04,17,02,06,11.00
2021,04,17,02,07,11.00
2021,04,17,02,08,11.00
2021,04,17,02,09,11.00
2021,04,17,02,10,11.00
2021,04,17,02,11,11.00
2021,04,17,02,12,11.00
2021,04,17,02,13,11.00
2021,04,17,02,14,11.00
2021,04,17,02,15,11.00
2021,04,17,02,16,11.00
2021,04,17,02,17,10.90
2021,04,17,02,18,10.90
2021,04,17,02,19,10.90
2021,04,17,02,20,10.90
2021,04,17,02,21,10.90
2021,04,17,02,22,10.90
2021,04,17,02,23,10.80
2021,04,17,02,24,10.80
2021,04,17,02,25,10.80
2021,04,17,02,26,10.80
2021,04,17,02,27,10.80
2021,04,17,02,28,10.80
2021,04,17,02,29,10.80
2021,04,17,02,30,10.80
2021,04,17,02,31,10.90
2021,04,17,02,32,10.90
2021,04,17,02,33,11.00
2021,04,17,02,34,11.00
2021,04,17,02,35,11.10
2021,04,17,02,36,11.10
2021,04,17,02,37,11.20
2021,04,17,02,38,11.20
2021,04,17,02,39,11.20
2021,04,17,02,40,11.20
2021,04,17,02,41,11.10
2021,04,17,02,42,11.10
2021,04,17,02,43,11.10
2021,04,17,02,44,11.10
2021,04,17,02,45,11.10
2021,04,17,02,46,11.00
2021,04,17,02,47,11.00
2021,04,17,02,48,11.00
2021,04,17,02,49,11.00
2021,04,17,02,50,10.90
2021,04,17,02,51,10.90
2021,04,17,02,52,10.90
2021,04,17,02,53,11.00
2021,04,17,02,54,11.00
2021,04,17,02,55,11.10
2021,04,17,02,56,11.10
2021,04,17,02,57,11.10
2021,04,17,02,58,11.10
2021,04,17,02,59,11.10
2021,04,17,03,00,11.10
2021,04,17,03,01,11.10
2021,04,17,03,02,11.10
2021,04,17,03,03,11.00
2021,04,17,03,04,11.00
2021,04,17,03,05,11.00
2021,04,17,03,06,10.90
2021,04,17,03,07,10.90
2021,04,17,03,08,10.90
2021,04,17,03,09,10.90
2021,04,17,03,10,10.90
2021,04,17,03,11,10.80
2021,04,17,03,12,10.80
2021,04,17,03,13,10.80
2021,04,17,03,14,10.80
2021,04,17,03,15,10.80
2021,04,17,03,16,10.70
2021,04,17,03,17,10.60
2021,04,17,03,18,10.60
2021,04,17,03,19,10.60
2021,04,17,03,20,10.50
2021,04,17,03,21,10.40
2021,04,17,03,22,10.40
2021,04,17,03,23,10.40
2021,04,17,03,24,10.30
2021,04,17,03,25,10.30
2021,04,17,03,26,10.20
2021,04,17,03,27,10.20
2021,04,17,03,28,10.10
2021,04,17,03,29,10.10
2021,04,17,03,30,10.10
2021,04,17,03,31,10.10
2021,04,17,03,32,10.10
2021,04,17,03,33,10.10
2021,04,17,03,34,10.20
2021,04,17,03,35,10.30
2021,04,17,03,36,10.40
2021,04,17,03,37,10.40
2021,04,17,03,38,10.50
2021,04,17,03,39,10.60
2021,04,17,03,40,10.70
2021,04,17,03,41,10.70
2021,04,17,03,42,10.70
2021,04,17,03,43,10.70
2021,04,17,03,44,10.70
2021,04,17,03,45,10.70
2021,04,17,03,46,10.70
2021,04,17,03,47,10.70
2021,04,17,03,48,10.70
2021,04,17,03,49,10.70
2021,04,17,03,50,10.70
2021,04,17,03,51,10.70
2021,04,17,03,52,10.70
2021,04,17,03,53,10.70
2021,04,17,03,54,10.70
2021,04,17,03,55,10.70
2021,04,17,03,56,10.70
2021,04,17,03,57,10.70
2021,04,17,03,58,10.70
2021,04,17,03,59,10.60
2021,04,17,04,00,10.60
2021,04,17,04,01,10.60
2021,04,17,04,02,10.60
2021,04,17,04,03,10.60
2021,04,17,04,04,10.60
2021,04,17,04,05,10.50
2021,04,17,04,06,10.50
2021,04,17,04,07,10.50
2021,04,17,04,08,10.40
2021,04,17,04,09,10.40
2021,04,17,04,10,10.40
2021,04,17,04,11,10.40
2021,04,17,04,12,10.40
2021,04,17,04,13,10.30
2021,04,17,04,14,10.30
2021,04,17,04,15,10.30
2021,04,17,04,16,10.30
2021,04,17,04,17,10.30
2021,04,17,04,18,10.40
2021,04,17,04,19,10.40
2021,04,17,04,20,10.30
2021,04,17,04,21,10.30
2021,04,17,04,22,10.30
2021,04,17,04,23,10.30
2021,04,17,04,24,10.30
2021,04,17,04,25,10.30
2021,04,17,04,26,10.30
2021,04,17,04,27,10.40
2021,04,17,04,28,10.40
2021,04,17,04,29,10.40
2021,04,17,04,30,10.40
2021,04,17,04,31,10.40
2021,04,17,04,32,10.40
2021,04,17,04,33,10.40
2021,04,17,04,34,10.40
2021,04,17,04,35,10.40
2021,04,17,04,36,10.40
2021,04,17,04,37,10.30
2021,04,17,04,38,10.30
2021,04,17,04,39,10.30
2021,04,17,04,40,10.30
2021,04,17,04,41,10.30
2021,04,17,04,42,10.20
2021,04,17,04,43,10.20
2021,04,17,04,44,10.20
2021,04,17,04,45,10.20
2021,04,17,04,46,10.20
2021,04,17,04,47,10.10
2021,04,17,04,48,10.10
2021,04,17,04,49,10.10
2021,04,17,04,50,10.10
2021,04,17,04,51,10.00
2021,04,17,04,52,10.00
2021,04,17,04,53,10.00
2021,04,17,04,54,9.90
2021,04,17,04,55,9.90
2021,04,17,04,56,9.90
2021,04,17,04,57,9.90
2021,04,17,04,58,9.80
2021,04,17,04,59,9.80
2021,04,17,05,00,9.80
2021,04,17,05,01,9.80
2021,04,17,05,02,9.70
2021,04,17,05,03,9.70
2021,04,17,05,04,9.70
2021,04,17,05,05,9.70
2021,04,17,05,06,9.70
2021,04,17,05,07,9.70
2021,04,17,05,08,9.70
2021,04,17,05,09,9.70
2021,04,17,05,10,9.60
2021,04,17,05,11,9.60
2021,04,17,05,12,9.60
2021,04,17,05,13,9.60
2021,04,17,05,14,9.60
2021,04,17,05,15,9.60
2021,04,17,05,16,9.60
2021,04,17,05,17,9.60
2021,04,17,05,18,9.60
2021,04,17,05,19,9.60
2021,04,17,05,20,9.60
2021,04,17,05,21,9.60
2021,04,17,05,22,9.50
2021,04,17,05,23,9.50
2021,04,17,05,24,9.50
2021,04,17,05,25,9.50
2021,04,17,05,26,9.50
2021,04,17,05,27,9.50
2021,04,17,05,28,9.50
2021,04,17,05,29,9.50
2021,04,17,05,30,9.50
2021,04,17,05,31,9.50
2021,04,17,05,32,9.50
2021,04,17,05,33,9.50
2021,04,17,05,34,9.50
2021,04,17,05,35,9.50
2021,04,17,05,36,9.50
2021,04,17,05,37,9.50
2021,04,17,05,38,9.50
2021,04,17,05,39,9.50
2021,04,17,05,40,9.50
2021,04,17,05,41,9.50
2021,04,17,05,42,9.50
2021,04,17,05,43,9.50
2021,04,17,05,44,9.50
2021,04,17,05,45,9.50
2021,04,17,05,46,9.60
2021,04,17,05,47,9.60
2021,04,17,05,48,9.50
2021,04,17,05,49,9.50
2021,04,17,05,50,9.50
2021,04,17,05,51,9.50
2021,04,17,05,52,9.50
2021,04,17,05,53,9.40
2021,04,17,05,54,9.40
2021,04,17,05,55,9.40
2021,04,17,05,56,9.40
2021,04,17,05,57,9.30
2021,04,17,05,58,9.30
2021,04,17,05,59,9.30
2021,04,17,06,00,9.30
2021,04,17,06,01,9.20
2021,04,17,06,02,9.20
2021,04,17,06,03,9.20
2021,04,17,06,04,9.20
2021,04,17,06,05,9.20
2021,04,17,06,06,9.10
2021,04,17,06,07,9.10
2021,04,17,06,08,9.10
2021,04,17,06,09,9.10
2021,04,17,06,10,9.00
2021,04,17,06,11,9.00
2021,04,17,06,12,9.00
2021,04,17,06,13,8.90
2021,04,17,06,14,8.90
2021,04,17,06,15,8.90
2021,04,17,06,16,8.90
2021,04,17,06,17,8.80
2021,04,17,06,18,8.80
2021,04,17,06,19,8.80
2021,04,17,06,20,8.80
2021,04,17,06,21,8.70
2021,04,17,06,22,8.70
2021,04,17,06,23,8.70
2021,04,17,06,24,8.70
2021,04,17,06,25,8.70
2021,04,17,06,26,8.60
2021,04,17,06,27,8.60
2021,04,17,06,28,8.60
2021,04,17,06,29,8.60
2021,04,17,06,30,8.60
2021,04,17,06,31,8.60
2021,04,17,06,32,8.60
2021,04,17,06,33,8.60
2021,04,17,06,34,8.60
2021,04,17,06,35,8.60
2021,04,17,06,36,8.60
2021,04,17,06,37,8.60
2021,04,17,06,38,8.60
2021,04,17,06,39,8.60
2021,04,17,06,40,8.60
2021,04,17,06,41,8.60
2021,04,17,06,42,8.60
2021,04,17,06,43,8.60
2021,04,17,06,44,8.60
2021,04,17,06,45,8.60
2021,04,17,06,46,8.60
2021,04,17,06,47,8.60
2021,04,17,06,48,8.60
2021,04,17,06,49,8.60
2021,04,17,06,50,8.50
2021,04,17,06,51,8.50
2021,04,17,06,52,8.50
2021,04,17,06,53,8.60
2021,04,17,06,54,8.60
2021,04,17,06,55,8.60
2021,04,17,06,56,8.60
2021,04,17,06,57,8.70
2021,04,17,06,58,8.70
2021,04,17,06,59,8.70
2021,04,17,07,00,8.70
2021,04,17,07,01,8.80
2021,04,17,07,02,8.80
2021,04,17,07,03,8.80
2021,04,17,07,04,8.80
2021,04,17,07,05,8.80
2021,04,17,07,06,8.80
2021,04,17,07,07,8.80
2021,04,17,07,08,8.80
2021,04,17,07,09,8.90
2021,04,17,07,10,8.90
2021,04,17,07,11,8.90
2021,04,17,07,12,8.90
2021,04,17,07,13,8.90
2021,04,17,07,14,8.90
2021,04,17,07,15,8.90
2021,04,17,07,16,9.00
2021,04,17,07,17,9.00
2021,04,17,07,18,9.00
2021,04,17,07,19,9.00
2021,04,17,07,20,9.00
2021,04,17,07,21,9.00
2021,04,17,07,22,9.00
2021,04,17,07,23,9.00
2021,04,17,07,24,9.10
2021,04,17,07,25,9.10
2021,04,17,07,26,9.10
2021,04,17,07,27,9.10
2021,04,17,07,28,9.10
2021,04,17,07,29,9.10
2021,04,17,07,30,9.10
2021,04,17,07,31,9.10
2021,04,17,07,32,9.10
2021,04,17,07,33,9.20
2021,04,17,07,34,9.20
2021,04,17,07,35,9.20
2021,04,17,07,36,9.20
2021,04,17,07,37,9.20
2021,04,17,07,38,9.20
2021,04,17,07,39,9.20
2021,04,17,07,40,9.20
2021,04,17,07,41,9.20
2021,04,17,07,42,9.20
2021,04,17,07,43,9.20
2021,04,17,07,44,9.30
2021,04,17,07,45,9.30
2021,04,17,07,46,9.30
2021,04,17,07,47,9.30
2021,04,17,07,48,9.30
2021,04,17,07,49,9.40
2021,04,17,07,50,9.40
2021,04,17,07,51,9.40
2021,04,17,07,52,9.40
2021,04,17,07,53,9.50
2021,04,17,07,54,9.50
2021,04,17,07,55,9.60
2021,04,17,07,56,9.60
2021,04,17,07,57,9.60
2021,04,17,07,58,9.70
2021,04,17,07,59,9.70
2021,04,17,08,00,9.70
2021,04,17,08,01,9.80
2021,04,17,08,02,9.80
2021,04,17,08,03,9.90
2021,04,17,08,04,9.90
2021,04,17,08,05,10.00
2021,04,17,08,06,10.00
2021,04,17,08,07,10.10
2021,04,17,08,08,10.20
2021,04,17,08,09,10.20
2021,04,17,08,10,10.30
2021,04,17,08,11,10.40
2021,04,17,08,12,10.40
2021,04,17,08,13,10.50
2021,04,17,08,14,10.50
2021,04,17,08,15,10.60
2021,04,17,08,16,10.70
2021,04,17,08,17,10.70
2021,04,17,08,18,10.80
2021,04,17,08,19,10.90
2021,04,17,08,20,10.90
2021,04,17,08,21,11.00
2021,04,17,08,22,11.10
2021,04,17,08,23,11.10
2021,04,17,08,24,11.20
2021,04,17,08,25,11.20
2021,04,17,08,26,11.30
2021,04,17,08,27,11.40
2021,04,17,08,28,11.50
2021,04,17,08,29,11.50
2021,04,17,08,30,11.60
2021,04,17,08,31,11.70
2021,04,17,08,32,11.80
2021,04,17,08,33,11.90
2021,04,17,08,34,12.00
2021,04,17,08,35,12.10
2021,04,17,08,36,12.20
2021,04,17,08,37,12.30
2021,04,17,08,38,12.40
2021,04,17,08,39,12.50
2021,04,17,08,40,12.60
2021,04,17,08,41,12.80
2021,04,17,08,42,12.90
2021,04,17,08,43,13.00
2021,04,17,08,44,13.10
2021,04,17,08,45,13.10
2021,04,17,08,46,13.20
2021,04,17,08,47,13.30
2021,04,17,08,48,13.30
2021,04,17,08,49,13.40
2021,04,17,08,50,13.50
2021,04,17,08,51,13.60
2021,04,17,08,52,13.70
2021,04,17,08,53,13.80
2021,04,17,08,54,13.90
2021,04,17,08,55,14.00
2021,04,17,08,56,14.10
2021,04,17,08,57,14.20
2021,04,17,08,58,14.30
2021,04,17,08,59,14.40
2021,04,17,09,00,14.50
2021,04,17,09,01,14.50
2021,04,17,09,02,14.60
2021,04,17,09,03,14.60
2021,04,17,09,04,14.70
2021,04,17,09,05,14.70
2021,04,17,09,06,14.80
2021,04,17,09,07,14.90
2021,04,17,09,08,15.00
2021,04,17,09,09,15.10
2021,04,17,09,10,15.20
2021,04,17,09,11,15.30
2021,04,17,09,12,15.40
2021,04,17,09,13,15.40
2021,04,17,09,14,15.50
2021,04,17,09,15,15.60
2021,04,17,09,16,15.60
2021,04,17,09,17,15.70
2021,04,17,09,18,15.70
2021,04,17,09,19,15.70
2021,04,17,09,20,15.60
2021,04,17,09,21,15.60
2021,04,17,09,22,15.60
2021,04,17,09,23,15.60
2021,04,17,09,24,15.60
2021,04,17,09,25,15.50
2021,04,17,09,26,15.50
2021,04,17,09,27,15.40
2021,04,17,09,28,15.40
2021,04,17,09,29,15.40
2021,04,17,09,30,15.40
2021,04,17,09,31,15.30
2021,04,17,09,32,15.30
2021,04,17,09,33,15.30
2021,04,17,09,34,15.30
2021,04,17,09,35,15.30
2021,04,17,09,36,15.40
2021,04,17,09,37,15.40
2021,04,17,09,38,15.40
2021,04,17,09,39,15.40
2021,04,17,09,40,15.50
2021,04,17,09,41,15.50
2021,04,17,09,42,15.50
2021,04,17,09,43,15.60
2021,04,17,09,44,15.60
2021,04,17,09,45,15.70
2021,04,17,09,46,15.80
2021,04,17,09,47,15.90
2021,04,17,09,48,16.00
2021,04,17,09,49,16.20
2021,04,17,09,50,16.30
2021,04,17,09,51,16.40
2021,04,17,09,52,16.40
2021,04,17,09,53,16.50
2021,04,17,09,54,16.50
2021,04,17,09,55,16.50
2021,04,17,09,56,16.60
2021,04,17,09,57,16.60
2021,04,17,09,58,16.60
2021,04,17,09,59,16.50
2021,04,17,10,00,16.50
2021,04,17,10,01,16.50
2021,04,17,10,02,16.50
2021,04,17,10,03,16.40
2021,04,17,10,04,16.30
2021,04,17,10,05,16.30
2021,04,17,10,06,16.20
2021,04,17,10,07,16.10
2021,04,17,10,08,16.10
2021,04,17,10,09,16.00
2021,04,17,10,10,16.00
2021,04,17,10,11,16.00
2021,04,17,10,12,16.00
2021,04,17,10,13,16.00
2021,04,17,10,14,15.90
2021,04,17,10,15,15.90
2021,04,17,10,16,15.90
2021,04,17,10,17,15.80
2021,04,17,10,18,15.80
2021,04,17,10,19,15.80
2021,04,17,10,20,15.90
2021,04,17,10,21,15.90
2021,04,17,10,22,15.90
2021,04,17,10,23,16.00
2021,04,17,10,24,16.00
2021,04,17,10,25,16.00
2021,04,17,10,26,16.10
2021,04,17,10,27,16.10
2021,04,17,10,28,16.10
2021,04,17,10,29,16.20
2021,04,17,10,30,16.20
2021,04,17,10,31,16.20
2021,04,17,10,32,16.30
2021,04,17,10,33,16.30
2021,04,17,10,34,16.40
2021,04,17,10,35,16.40
2021,04,17,10,36,16.50
2021,04,17,10,37,16.50
2021,04,17,10,38,16.50
2021,04,17,10,39,16.60
2021,04,17,10,40,16.60
2021,04,17,10,41,16.60
2021,04,17,10,42,16.60
2021,04,17,10,43,16.50
2021,04,17,10,44,16.40
2021,04,17,10,45,16.30
2021,04,17,10,46,16.20
2021,04,17,10,47,16.20
2021,04,17,10,48,16.20
2021,04,17,10,49,16.20
2021,04,17,10,50,16.10
2021,04,17,10,51,16.00
2021,04,17,10,52,16.00
2021,04,17,10,53,16.00
2021,04,17,10,54,16.00
2021,04,17,10,55,16.00
2021,04,17,10,56,16.10
2021,04,17,10,57,16.10
2021,04,17,10,58,16.10
2021,04,17,10,59,16.10
2021,04,17,11,00,16.20
2021,04,17,11,01,16.20
2021,04,17,11,02,16.20
2021,04,17,11,03,16.30
2021,04,17,11,04,16.30
2021,04,17,11,05,16.40
2021,04,17,11,06,16.40
2021,04,17,11,07,16.50
2021,04,17,11,08,16.60
2021,04,17,11,09,16.60
2021,04,17,11,10,16.70
2021,04,17,11,11,16.70
2021,04,17,11,12,16.80
2021,04,17,11,13,16.80
2021,04,17,11,14,16.90
2021,04,17,11,15,16.90
2021,04,17,11,16,16.80
2021,04,17,11,17,16.80
2021,04,17,11,18,16.80
2021,04,17,11,19,16.80
2021,04,17,11,20,16.80
2021,04,17,11,21,16.80
2021,04,17,11,22,16.80
2021,04,17,11,23,16.80
2021,04,17,11,24,16.80
2021,04,17,11,25,16.90
2021,04,17,11,26,16.90
2021,04,17,11,27,16.90
2021,04,17,11,28,17.00
2021,04,17,11,29,17.00
2021,04,17,11,30,16.90
2021,04,17,11,31,16.90
2021,04,17,11,32,16.90
2021,04,17,11,33,16.90
2021,04,17,11,34,16.80
2021,04,17,11,35,16.80
2021,04,17,11,36,16.80
2021,04,17,11,37,16.80
2021,04,17,11,38,16.90
2021,04,17,11,39,16.90
2021,04,17,11,40,16.90
2021,04,17,11,41,16.90
2021,04,17,11,42,17.00
2021,04,17,11,43,17.00
2021,04,17,11,44,17.10
2021,04,17,11,45,17.20
2021,04,17,11,46,17.20
2021,04,17,11,47,17.30
2021,04,17,11,48,17.30
2021,04,17,11,49,17.40
2021,04,17,11,50,17.40
2021,04,17,11,51,17.50
2021,04,17,11,52,17.60
2021,04,17,11,53,17.60
2021,04,17,11,54,17.60
2021,04,17,11,55,17.70
2021,04,17,11,56,17.70
2021,04,17,11,57,17.80
2021,04,17,11,58,17.80
2021,04,17,11,59,17.90
2021,04,17,12,00,17.90
2021,04,17,12,01,18.00
2021,04,17,12,02,18.10
2021,04,17,12,03,18.10
2021,04,17,12,04,18.10
2021,04,17,12,05,18.20
2021,04,17,12,06,18.20
2021,04,17,12,07,18.20
2021,04,17,12,08,18.30
2021,04,17,12,09,18.30
2021,04,17,12,10,18.40
2021,04,17,12,11,18.40
2021,04,17,12,12,18.40
2021,04,17,12,13,18.40
2021,04,17,12,14,18.40
2021,04,17,12,15,18.40
2021,04,17,12,16,18.50
2021,04,17,12,17,18.40
2021,04,17,12,18,18.50
2021,04,17,12,19,18.50
2021,04,17,12,20,18.50
2021,04,17,12,21,18.60
2021,04,17,12,22,18.60
2021,04,17,12,23,18.70
2021,04,17,12,24,18.70
2021,04,17,12,25,18.80
2021,04,17,12,26,18.80
2021,04,17,12,27,18.90
2021,04,17,12,28,18.90
2021,04,17,12,29,18.90
2021,04,17,12,30,19.00
2021,04,17,12,31,19.00
2021,04,17,12,32,19.00
2021,04,17,12,33,19.00
2021,04,17,12,34,19.00
2021,04,17,12,35,19.00
2021,04,17,12,36,19.00
2021,04,17,12,37,19.10
2021,04,17,12,38,19.10
2021,04,17,12,39,19.10
2021,04,17,12,40,19.10
2021,04,17,12,41,19.10
2021,04,17,12,42,19.10
2021,04,17,12,43,19.10
2021,04,17,12,44,19.10
2021,04,17,12,45,19.10
2021,04,17,12,46,19.10
2021,04,17,12,47,19.20
2021,04,17,12,48,19.20
2021,04,17,12,49,19.20
2021,04,17,12,50,19.20
2021,04,17,12,51,19.20
2021,04,17,12,52,19.10
2021,04,17,12,53,19.10
2021,04,17,12,54,19.10
2021,04,17,12,55,19.10
2021,04,17,12,56,19.10
2021,04,17,12,57,19.10
2021,04,17,12,58,19.10
2021,04,17,12,59,19.10
2021,04,17,13,00,19.10
2021,04,17,13,01,19.10
2021,04,17,13,02,19.10
2021,04,17,13,03,19.00
2021,04,17,13,04,19.00
2021,04,17,13,05,19.00
2021,04,17,13,06,19.00
2021,04,17,13,07,19.00
2021,04,17,13,08,19.00
2021,04,17,13,09,19.00
2021,04,17,13,10,19.10
2021,04,17,13,11,19.10
2021,04,17,13,12,19.10
2021,04,17,13,13,19.20
2021,04,17,13,14,19.20
2021,04,17,13,15,19.20
2021,04,17,13,16,19.20
2021,04,17,13,17,19.30
2021,04,17,13,18,19.30
2021,04,17,13,19,19.30
2021,04,17,13,20,19.40
2021,04,17,13,21,19.40
2021,04,17,13,22,19.40
2021,04,17,13,23,19.40
2021,04,17,13,24,19.50
2021,04,17,13,25,19.50
2021,04,17,13,26,19.50
2021,04,17,13,27,19.50
2021,04,17,13,28,19.50
2021,04,17,13,29,19.40
2021,04,17,13,30,19.40
2021,04,17,13,31,19.40
2021,04,17,13,32,19.40
2021,04,17,13,33,19.40
2021,04,17,13,34,19.40
2021,04,17,13,35,19.50
2021,04,17,13,36,19.50
2021,04,17,13,37,19.60
2021,04,17,13,38,19.70
2021,04,17,13,39,19.80
2021,04,17,13,40,19.80
2021,04,17,13,41,19.90
2021,04,17,13,42,20.00
2021,04,17,13,43,20.10
2021,04,17,13,44,20.10
2021,04,17,13,45,20.20
2021,04,17,13,46,20.20
2021,04,17,13,47,20.20
2021,04,17,13,48,20.20
2021,04,17,13,49,20.00
2021,04,17,13,50,19.90
2021,04,17,13,51,19.90
2021,04,17,13,52,19.80
2021,04,17,13,53,19.80
2021,04,17,13,54,19.80
2021,04,17,13,55,19.90
2021,04,17,13,56,19.90
2021,04,17,13,57,20.00
2021,04,17,13,58,20.00
2021,04,17,13,59,20.10
2021,04,17,14,00,20.10
2021,04,17,14,01,20.10
2021,04,17,14,02,20.10
2021,04,17,14,03,20.10
2021,04,17,14,04,20.10
2021,04,17,14,05,20.10
2021,04,17,14,06,20.20
2021,04,17,14,07,20.20
2021,04,17,14,08,20.20
2021,04,17,14,09,20.20
2021,04,17,14,10,20.20
2021,04,17,14,11,20.20
2021,04,17,14,12,20.10
2021,04,17,14,13,20.00
2021,04,17,14,14,19.90
2021,04,17,14,15,19.90
2021,04,17,14,16,19.90
2021,04,17,14,17,20.00
2021,04,17,14,18,20.00
2021,04,17,14,19,20.10
2021,04,17,14,20,20.20
2021,04,17,14,21,20.20
2021,04,17,14,22,20.30
2021,04,17,14,23,20.30
2021,04,17,14,24,20.40
2021,04,17,14,25,20.40
2021,04,17,14,26,20.40
2021,04,17,14,27,20.40
2021,04,17,14,28,20.40
2021,04,17,14,29,20.50
2021,04,17,14,30,20.50
2021,04,17,14,31,20.60
2021,04,17,14,32,20.60
2021,04,17,14,33,20.60
2021,04,17,14,34,20.70
2021,04,17,14,35,20.70
2021,04,17,14,36,20.70
2021,04,17,14,37,20.70
2021,04,17,14,38,20.70
2021,04,17,14,39,20.70
2021,04,17,14,40,20.70
2021,04,17,14,41,20.80
2021,04,17,14,42,20.80
2021,04,17,14,43,20.80
2021,04,17,14,44,20.80
2021,04,17,14,45,20.80
2021,04,17,14,46,20.90
2021,04,17,14,47,20.90
2021,04,17,14,48,20.90
2021,04,17,14,49,20.90
2021,04,17,14,50,20.90
2021,04,17,14,51,20.90
2021,04,17,14,52,20.90
2021,04,17,14,53,20.90
2021,04,17,14,54,20.90
2021,04,17,14,55,20.90
2021,04,17,14,56,20.90
2021,04,17,14,57,20.90
2021,04,17,14,58,21.00
2021,04,17,14,59,21.00
2021,04,17,15,00,21.00
2021,04,17,15,01,21.00
2021,04,17,15,02,21.00
2021,04,17,15,03,21.00
2021,04,17,15,04,21.00
2021,04,17,15,05,21.10
2021,04,17,15,06,21.10
2021,04,17,15,07,21.10
2021,04,17,15,08,21.20
2021,04,17,15,09,21.20
2021,04,17,15,10,21.20
2021,04,17,15,11,21.20
2021,04,17,15,12,21.30
2021,04,17,15,13,21.30
2021,04,17,15,14,21.30
2021,04,17,15,15,21.30
2021,04,17,15,16,21.30
2021,04,17,15,17,21.30
2021,04,17,15,18,21.30
2021,04,17,15,19,21.30
2021,04,17,15,20,21.40
2021,04,17,15,21,21.40
2021,04,17,15,22,21.40
2021,04,17,15,23,21.40
2021,04,17,15,24,21.50
2021,04,17,15,25,21.50
2021,04,17,15,26,21.60
2021,04,17,15,27,21.60
2021,04,17,15,28,21.50
2021,04,17,15,29,21.50
2021,04,17,15,30,21.40
2021,04,17,15,31,21.40
2021,04,17,15,32,21.30
2021,04,17,15,33,21.30
2021,04,17,15,34,21.30
2021,04,17,15,35,21.30
2021,04,17,15,36,21.30
2021,04,17,15,37,21.30
2021,04,17,15,38,21.40
2021,04,17,15,39,21.40
2021,04,17,15,40,21.40
2021,04,17,15,41,21.50
2021,04,17,15,42,21.50
2021,04,17,15,43,21.50
2021,04,17,15,44,21.60
2021,04,17,15,45,21.60
2021,04,17,15,46,21.60
2021,04,17,15,47,21.60
2021,04,17,15,48,21.60
2021,04,17,15,49,21.70
2021,04,17,15,50,21.70
2021,04,17,15,51,21.70
2021,04,17,15,52,21.70
2021,04,17,15,53,21.70
2021,04,17,15,54,21.70
2021,04,17,15,55,21.60
2021,04,17,15,56,21.50
2021,04,17,15,57,21.50
2021,04,17,15,58,21.40
2021,04,17,15,59,21.40
2021,04,17,16,00,21.40
2021,04,17,16,01,21.50
2021,04,17,16,02,21.50
2021,04,17,16,03,21.50
2021,04,17,16,04,21.50
2021,04,17,16,05,21.50
2021,04,17,16,06,21.50
2021,04,17,16,07,21.50
2021,04,17,16,08,21.50
2021,04,17,16,09,21.40
2021,04,17,16,10,21.40
2021,04,17,16,11,21.40
2021,04,17,16,12,21.40
2021,04,17,16,13,21.40
2021,04,17,16,14,21.50
2021,04,17,16,15,21.50
2021,04,17,16,16,21.60
2021,04,17,16,17,21.60
2021,04,17,16,18,21.70
2021,04,17,16,19,21.70
2021,04,17,16,20,21.70
2021,04,17,16,21,21.70
2021,04,17,16,22,21.60
2021,04,17,16,23,21.70
2021,04,17,16,24,21.60
2021,04,17,16,25,21.60
2021,04,17,16,26,21.60
2021,04,17,16,27,21.60
2021,04,17,16,28,21.60
2021,04,17,16,29,21.60
2021,04,17,16,30,21.60
2021,04,17,16,31,21.50
2021,04,17,16,32,21.50
2021,04,17,16,33,21.40
2021,04,17,16,34,21.40
2021,04,17,16,35,21.40
2021,04,17,16,36,21.40
2021,04,17,16,37,21.30
2021,04,17,16,38,21.30
2021,04,17,16,39,21.30
2021,04,17,16,40,21.30
2021,04,17,16,41,21.30
2021,04,17,16,42,21.30
2021,04,17,16,43,21.30
2021,04,17,16,44,21.20
2021,04,17,16,45,21.20
2021,04,17,16,46,21.10
2021,04,17,16,47,21.10
2021,04,17,16,48,21.10
2021,04,17,16,49,21.10
2021,04,17,16,50,21.10
2021,04,17,16,51,21.10
2021,04,17,16,52,21.10
2021,04,17,16,53,21.10
2021,04,17,16,54,21.10
2021,04,17,16,55,21.00
2021,04,17,16,56,21.00
2021,04,17,16,57,21.10
2021,04,17,16,58,21.10
2021,04,17,16,59,21.10
2021,04,17,17,00,21.20
2021,04,17,17,01,21.20
2021,04,17,17,02,21.30
2021,04,17,17,03,21.20
2021,04,17,17,04,21.20
2021,04,17,17,05,21.20
2021,04,17,17,06,21.20
2021,04,17,17,07,21.20
2021,04,17,17,08,21.20
2021,04,17,17,09,21.20
2021,04,17,17,10,21.20
2021,04,17,17,11,21.10
2021,04,17,17,12,21.00
2021,04,17,17,13,20.90
2021,04,17,17,14,20.90
2021,04,17,17,15,20.90
2021,04,17,17,16,20.90
2021,04,17,17,17,20.80
2021,04,17,17,18,20.80
2021,04,17,17,19,20.70
2021,04,17,17,20,20.70
2021,04,17,17,21,20.60
2021,04,17,17,22,20.60
2021,04,17,17,23,20.60
2021,04,17,17,24,20.50
2021,04,17,17,25,20.50
2021,04,17,17,26,20.40
2021,04,17,17,27,20.40